• In Hungary
  • List of Countries
  • For 7 days
  • Water Temperature
  • Satellite Maps
  • Weather Map
  • News
  • Weather Widgets
  • user-avatar
    Login

    Hourly Weather Manukovo

    Today, 20 September, Thursday

    Time Temperature Precipitation Wind Pressure Humidity
    00:00 +14°C° 0 mm 3 mps 747 mmHg 93%
    01:00 +14°C° 0 mm 3 mps 747 mmHg 94%
    02:00 +14°C° 0 mm 3 mps 747 mmHg 96%
    03:00 +14°C° 0 mm 3 mps 747 mmHg 96%
    04:00 +14°C° 0 mm 3 mps 747 mmHg 96%
    05:00 +14°C° 0 mm 3 mps 747 mmHg 97%
    06:00 +14°C° 0 mm 4 mps 747 mmHg 93%
    07:00 +15°C° 0 mm 4 mps 748 mmHg 90%
    08:00 +17°C° 0 mm 4 mps 748 mmHg 86%
    09:00 +17°C° 0 mm 4 mps 748 mmHg 83%
    10:00 +17°C° 0 mm 4 mps 748 mmHg 80%
    11:00 +18°C° 0 mm 4 mps 749 mmHg 78%
    12:00 +18°C° 0 mm 4 mps 749 mmHg 74%
    13:00 +19°C° 0 mm 4 mps 749 mmHg 70%
    14:00 +20°C° 0 mm 4 mps 749 mmHg 66%
    15:00 +19°C° 0 mm 3 mps 749 mmHg 70%
    16:00 +19°C° 0 mm 2 mps 750 mmHg 74%
    17:00 +19°C° 0 mm 1 mps 750 mmHg 79%
    18:00 +17°C° 0 mm 2 mps 750 mmHg 82%
    19:00 +16°C° 0 mm 2 mps 750 mmHg 86%
    20:00 +15°C° 0 mm 2 mps 750 mmHg 90%
    21:00 +15°C° 0 mm 2 mps 750 mmHg 91%
    22:00 +15°C° 0 mm 2 mps 751 mmHg 92%
    23:00 +14°C° 0 mm 2 mps 751 mmHg 93%

    Tomorrow, 21 September, Friday

    Time Temperature Precipitation Wind Pressure Humidity
    00:00 +14°C° 0 mm 2 mps 751 mmHg 94%
    01:00 +14°C° 0 mm 2 mps 751 mmHg 94%
    02:00 +14°C° 0 mm 2 mps 751 mmHg 95%
    03:00 +13°C° 0 mm 2 mps 751 mmHg 95%
    04:00 +13°C° 0 mm 2 mps 752 mmHg 95%
    05:00 +13°C° 0 mm 2 mps 752 mmHg 96%
    06:00 +15°C° 0 mm 2 mps 752 mmHg 91%
    07:00 +16°C° 0 mm 2 mps 752 mmHg 86%
    08:00 +17°C° 0 mm 2 mps 752 mmHg 81%
    09:00 +19°C° 0 mm 2 mps 752 mmHg 75%
    10:00 +21°C° 0 mm 3 mps 752 mmHg 69%
    11:00 +24°C° 0 mm 3 mps 753 mmHg 64%
    12:00 +24°C° 0 mm 3 mps 753 mmHg 62%
    13:00 +25°C° 0 mm 3 mps 752 mmHg 61%
    14:00 +25°C° 0 mm 3 mps 752 mmHg 59%
    15:00 +24°C° 0 mm 3 mps 752 mmHg 65%
    16:00 +23°C° 0 mm 2 mps 752 mmHg 71%
    17:00 +21°C° 0 mm 2 mps 752 mmHg 77%
    18:00 +20°C° 0 mm 2 mps 752 mmHg 81%
    19:00 +19°C° 0 mm 2 mps 752 mmHg 85%
    20:00 +18°C° 0 mm 2 mps 752 mmHg 89%
    21:00 +17°C° 0 mm 2 mps 752 mmHg 90%
    22:00 +17°C° 0 mm 2 mps 752 mmHg 91%
    23:00 +16°C° 0 mm 2 mps 752 mmHg 92%

    Day after tomorrow, 22 September, Saturday

    Time Temperature Precipitation Wind Pressure Humidity
    00:00 +16°C° 0 mm 2 mps 752 mmHg 91%
    01:00 +16°C° 0 mm 3 mps 751 mmHg 91%
    02:00 +16°C° 0 mm 3 mps 751 mmHg 90%
    03:00 +14°C° 0 mm 3 mps 751 mmHg 90%
    04:00 +14°C° 0 mm 3 mps 751 mmHg 89%
    05:00 +14°C° 0 mm 3 mps 750 mmHg 89%
    06:00 +15°C° 0 mm 4 mps 750 mmHg 84%
    07:00 +18°C° 0 mm 4 mps 750 mmHg 79%
    08:00 +19°C° 0 mm 4 mps 749 mmHg 74%
    09:00 +21°C° 0 mm 5 mps 749 mmHg 68%
    10:00 +22°C° 0 mm 6 mps 748 mmHg 62%
    11:00 +24°C° 0 mm 6 mps 748 mmHg 56%
    12:00 +24°C° 0 mm 6 mps 747 mmHg 54%
    13:00 +24°C° 0 mm 6 mps 746 mmHg 51%
    14:00 +26°C° 0 mm 6 mps 746 mmHg 49%
    15:00 +24°C° 0.1 mm 6 mps 746 mmHg 53%
    16:00 +22°C° 0.1 mm 5 mps 746 mmHg 58%
    17:00 +21°C° 0.1 mm 4 mps 745 mmHg 62%
    18:00 +20°C° 0.4 mm 4 mps 746 mmHg 70%
    19:00 +18°C° 0.4 mm 4 mps 746 mmHg 77%
    20:00 +17°C° 0.4 mm 3 mps 746 mmHg 85%
    21:00 +16°C° 0.1 mm 3 mps 746 mmHg 86%
    22:00 +15°C° 0.1 mm 2 mps 746 mmHg 87%
    23:00 +14°C° 0.1 mm 2 mps 746 mmHg 89%

    23 September, Sunday

    Time Temperature Precipitation Wind Pressure Humidity
    00:00 +14°C° 0.3 mm 2 mps 746 mmHg 88%
    01:00 +13°C° 0.3 mm 2 mps 746 mmHg 88%
    02:00 +11°C° 0.3 mm 3 mps 745 mmHg 87%
    03:00 +12°C° 0.8 mm 2 mps 745 mmHg 89%
    04:00 +10°C° 0.8 mm 2 mps 745 mmHg 91%
    05:00 +10°C° 0.8 mm 2 mps 745 mmHg 92%
    06:00 +10°C° 1 mm 2 mps 745 mmHg 93%
    07:00 +10°C° 1 mm 2 mps 745 mmHg 93%
    08:00 +10°C° 1 mm 2 mps 744 mmHg 93%
    09:00 +10°C° 1 mm 2 mps 744 mmHg 92%
    10:00 +10°C° 1 mm 2 mps 744 mmHg 91%
    11:00 +12°C° 1 mm 2 mps 744 mmHg 89%
    12:00 +12°C° 0.5 mm 2 mps 744 mmHg 87%
    13:00 +12°C° 0.5 mm 2 mps 744 mmHg 86%
    14:00 +12°C° 0.5 mm 2 mps 743 mmHg 84%
    15:00 +12°C° 0 mm 2 mps 743 mmHg 85%
    16:00 +12°C° 0 mm 2 mps 743 mmHg 85%
    17:00 +12°C° 0 mm 2 mps 743 mmHg 86%
    18:00 +10°C° 0 mm 2 mps 743 mmHg 88%
    19:00 +9°C° 0 mm 2 mps 743 mmHg 90%
    20:00 +8°C° 0 mm 2 mps 743 mmHg 91%
    21:00 +8°C° 0 mm 2 mps 743 mmHg 92%
    22:00 +8°C° 0 mm 2 mps 743 mmHg 93%
    23:00 +8°C° 0 mm 3 mps 743 mmHg 93%

    24 September, Monday

    Time Temperature Precipitation Wind Pressure Humidity
    00:00 +7°C° 0 mm 3 mps 743 mmHg 94%
    01:00 +7°C° 0 mm 3 mps 743 mmHg 95%
    02:00 +7°C° 0 mm 3 mps 743 mmHg 96%
    03:00 +7°C° 0 mm 3 mps 743 mmHg 96%
    04:00 +5°C° 0 mm 3 mps 743 mmHg 96%
    05:00 +5°C° 0 mm 3 mps 744 mmHg 97%
    06:00 +7°C° 0 mm 3 mps 744 mmHg 94%
    07:00 +7°C° 0 mm 3 mps 744 mmHg 92%
    08:00 +8°C° 0 mm 3 mps 744 mmHg 89%
    09:00 +8°C° 0 mm 3 mps 744 mmHg 87%
    10:00 +9°C° 0 mm 3 mps 745 mmHg 84%
    11:00 +9°C° 0 mm 3 mps 745 mmHg 82%
    12:00 +10°C° 0 mm 3 mps 745 mmHg 79%
    13:00 +10°C° 0 mm 3 mps 744 mmHg 77%
    14:00 +11°C° 0 mm 3 mps 744 mmHg 75%
    15:00 +10°C° 0 mm 2 mps 744 mmHg 78%
    16:00 +10°C° 0 mm 2 mps 743 mmHg 81%
    17:00 +9°C° 0 mm 2 mps 743 mmHg 84%
    18:00 +9°C° 0.4 mm 2 mps 743 mmHg 85%
    19:00 +9°C° 0.4 mm 3 mps 742 mmHg 87%
    20:00 +9°C° 0.4 mm 3 mps 742 mmHg 89%
    21:00 +8°C° 0.3 mm 4 mps 741 mmHg 88%
    22:00 +8°C° 0.3 mm 5 mps 740 mmHg 86%
    23:00 +8°C° 0.3 mm 6 mps 738 mmHg 84%

    25 September, Tuesday

    Time Temperature Precipitation Wind Pressure Humidity
    00:00 +8°C° 1.4 mm 6 mps 737 mmHg 86%
    01:00 +8°C° 1.4 mm 7 mps 736 mmHg 87%
    02:00 +7°C° 1.4 mm 8 mps 734 mmHg 89%
    03:00 +8°C° 1.8 mm 7 mps 733 mmHg 89%
    04:00 +8°C° 1.8 mm 7 mps 733 mmHg 89%
    05:00 +8°C° 1.8 mm 7 mps 732 mmHg 89%
    06:00 +9°C° 0.6 mm 7 mps 731 mmHg 89%
    07:00 +9°C° 0.6 mm 6 mps 731 mmHg 90%
    08:00 +9°C° 0.6 mm 5 mps 731 mmHg 90%
    09:00 +10°C° 0.2 mm 6 mps 731 mmHg 87%
    10:00 +10°C° 0.2 mm 6 mps 731 mmHg 84%
    11:00 +10°C° 0.2 mm 6 mps 731 mmHg 81%
    12:00 +10°C° 0.2 mm 6 mps 731 mmHg 82%
    13:00 +10°C° 0.2 mm 5 mps 731 mmHg 83%
    14:00 +10°C° 0.2 mm 5 mps 731 mmHg 84%
    15:00 +9°C° 0.2 mm 5 mps 731 mmHg 85%
    16:00 +9°C° 0.2 mm 5 mps 731 mmHg 86%
    17:00 +10°C° 0.2 mm 4 mps 731 mmHg 88%
    18:00 +8°C° 0.1 mm 4 mps 731 mmHg 88%
    19:00 +8°C° 0.1 mm 4 mps 731 mmHg 89%
    20:00 +8°C° 0.1 mm 4 mps 731 mmHg 89%
    21:00 +8°C° 0.1 mm 4 mps 732 mmHg 89%
    22:00 +7°C° 0.1 mm 4 mps 732 mmHg 90%
    23:00 +7°C° 0.1 mm 4 mps 732 mmHg 90%
    Show more